User: anonymous   Login
Location: Bergnershof
(48.9468°N, 10.9431°E)
Time: 16:53:53
(UTC+00:00)
Language:

SJ 16-02 - Orbit

View from above orbital plane
View from above orbital plane
View from above satellite
View from above satellite

Ground track
Ground track

The orbit data is extracted from the following two-line orbital elements,

1 41634U 16043A   21128.24539607  .00000105  00000-0  15228-4 0  9990
2 41634  75.0042 185.3849 0008768 238.7581 121.2735 14.85798106263471
Epoch (UTC): 08 May 2021 05:53:22
Eccentricity: 0.0008768
inclination: 75.0042°
perigee height: 605 km
apogee height: 617 km
right ascension of ascending node: 185.3849°
argument of perigee: 238.7581°
revolutions per day: 14.85798106
mean anomaly at epoch: 121.2735°
orbit number at epoch: 26347

The dashed part of the orbit path shows where the satellite is in the earth's shadow,  

DLR